Location: Carnières
(50.1682°N, 3.3474°E)
Time: 21:47:57
(UTC+00:00)

SL-16 R/B - Pass Details

Date: 08 August 2024
Orbit: 842 x 845 km, 71.0° (Epoch: 10 September)

Event Time Altitude Azimuth Distance (km) Brightness Sun altitude
Exits shadow 01:25:27 31° 246° (WSW) 1,435 3.0 -20.7°
Maximum altitude 01:27:53 52° 306° (NW) 1,042 2.7 -20.5°
Drops below altitude 10° 01:33:26 10° 23° (NNE) 2,476 5.8 -20.2°
Sets 01:35:58 0° 28° (NNE) 3,416 7.0 -20.0°
